Klaipėda, Lithuania

02:59 PM EEST on gegužės 24, 2018 (GMT +0300)
Sausio 15-osios gatvė | | Change Station

Elev 22 ft 55.70 °N, 21.14 °E | Updated 12 minutes ago

Geras oras
Geras oras
66.9 °F
Feels Like 66.9 °F
N
3.1
Vėjas nepastovus Vėjas from Vakarų-šiaurės vakarų
Gusts 8.1 mph

Šiandien
High -- | Low -- °F
--% Chance of Precip.
Yesterday
High -- | Low -- °F
Precip. -- in
Slėgis 30.33 in
Matomumas 6.2 mylios
Debesys
Rasos taškas 47 °F
Drėgmė 48%
Krituliai 0.00 in
Sniego dangos storis Not available.
5:09 AM 9:55 PM
Priešpilnis, 75% visible
METAR EVLA 241150Z AUTO 31007KT 290V010 9999 NCD 21/10 Q1027
Slėgis 30.33 in
Matomumas 6.2 mylios
Debesys
Rasos taškas 47 °F
Drėgmė 48%
Krituliai 0.00 in
Sniego dangos storis Not available.
5:09 AM 9:55 PM
Priešpilnis, 75% visible
METAR EVLA 241150Z AUTO 31007KT 290V010 9999 NCD 21/10 Q1027

Get Severe Weather Alerts

Thanks for signing up!

Be on the lookout for a verification email in your inbox.

You'll start receiving the daily forecast at 6 AM.

×

10-Day Weather Forecast

×

Almanac

Astronomija

May. 24, 2018 Rise Set
Vietos laikas
Dienos šviesa
Jūrinė diena
Astronominė diena
Mėnulis
Matomos šviesos trukmė
Dienos ilgis
Tomorrow will be .
, % of the Moon is Illuminated

Šiandienos maksimumai

Country Highs Country Lows

Community

WunderPhotos

Category 6

Welcome to Category 6. This is the collective home for Weather Underground's featured writeups by Dr. Jeff Masters (right), Bob Henson (left), Chris Burt, and other regular contributors.

Nearby

Air Quality

  Air Quality AQ Index Pollutant
Not available.

Sniego danga

Station Depth Elevation

Earthquake Activity

Miestas Distance Mag. Time & Date
Minimum magnitude displayed is 2.5.

Coastal Water Temperatures

Vieta Temperatūra

Stations

Nearby Weather Stations

Station Location Temp Šaltas vėjas Rasos taškas Drėgmė Vėjas Precip. Elev Duomenys papildyti Type